Regional Weather Roundup
Issued by NWS

Home | Current Version | Previous Version | Graphics & Text | Print | Product List | Glossary On
Versions: 1 2 3 4 5 6 7 8 9 10 11 12 13 14 15 16 17 18 19 20 21 22 23 24 25 26 27 28 29 30 31 32 33 34 35 36 37 38 39 40 41 42 43 44 45 46 47 48 49 50
000
ASUS44 KMEG 280810
RWRTN
TENNESSEE HOURLY STATE WEATHER ROUNDUP
NATIONAL WEATHER SERVICE MEMPHIS TN
300 AM CDT TUE MAR 28 2017

TNZ002-004-019-021-049-052-054-088>092-280900-
WEST TENNESSEE

CITY           SKY/WX    TMP DP  RH WIND       PRES   REMARKS
MEMPHIS INTL   PTCLDY    63  58  83 CALM      29.91S
NWS MEMPHIS      N/A     58 N/A N/A MISG        N/A
JACKSON        FOG       54  54 100 CALM      29.92S VSB 1/4
DYERSBURG      CLOUDY    57  55  93 N9        29.94S
SOMERVILLE     MOCLDY    57  55  94 CALM      29.91R
BOLIVAR        CLOUDY    57  55  94 CALM      29.91S FOG
PARIS          CLOUDY    52  52 100 N3        29.92S
HUNTINGDON     FOG       52  52 100 CALM      29.92R VSB 1/4
SAVANNAH       FOG       61  59  94 CALM      29.91R VSB 0
$$

TNZ008-025-027-028-033-062-065-066-280900-
NORTH MIDDLE TENNESSEE

CITY           SKY/WX    TMP DP  RH WIND       PRES   REMARKS
NASHVILLE      CLOUDY    58  57  97 W6        29.90S
PORTLAND       CLOUDY    57  57 100 W5        29.89S
CLARKSVILLE    MOCLDY    53  52  96 W6        29.90R
SMYRNA         RAIN      55  55 100 S3          N/A
COOKEVILLE     MOCLDY    54  52  94 CALM      29.89R
GALLATIN       CLOUDY    59  57  94 CALM      29.92S
CROSSVILLE     CLEAR     54  52  93 S6        29.90F
$$

TNZ061-075-076-078-094-096-097-280900-
SOUTH MIDDLE TENNESSEE

CITY           SKY/WX    TMP DP  RH WIND       PRES   REMARKS
FAYETTEVILLE   CLOUDY    57  57 100 S6        29.91S FOG
TULLAHOMA      CLEAR     54  54 100 S5          N/A
WINCHESTER     CLEAR     55  55 100 SE5       29.91S
MCMINNVILLE    PTCLDY    57  57 100 CALM      29.89F
COLUMBIA       CLOUDY   N/A N/A N/A CALM      29.89S
SHELBYVILLE    CLOUDY    57  57 100 CALM      29.91S
$$

TNZ017-018-042-046-047-280900-
NORTHEAST TENNESSEE

CITY           SKY/WX    TMP DP  RH WIND       PRES   REMARKS
TRI CITIES     CLOUDY    57  56  96 CALM      29.90F
ELIZABETHTON   DRIZZLE   57  55  94 CALM      29.90F
$$

TNZ012-013-036-069-073-074-280900-
CENTRAL EAST TENNESSEE

CITY           SKY/WX    TMP DP  RH WIND       PRES   REMARKS
KNOXVILLE      MOCLDY    57  55  93 W7        29.88F
OAK RIDGE      CLOUDY    57  55  93 CALM      29.91F
DOWNTOWN KNOXV PTCLDY    55  55 100 CALM      29.89S
GATLINBURG     MOCLDY    55  54  94 SW3       29.87F
MORRISTOWN     CLOUDY    55  55 100 CALM      29.88F FOG
JACKSBORO      CLEAR     54  54 100 NE5       29.90F
$$

TNZ083-085-099-280900-
SOUTHEAST TENNESSEE

CITY           SKY/WX    TMP DP  RH WIND       PRES   REMARKS
CHATTANOOGA    MOCLDY    57  57 100 CALM      29.92F
$$

SKY/WX REPORTED AS FAIR MEANS FEW OR NO CLOUDS BELOW
12 THOUSAND FEET.




USA.gov is the U.S. government's official web portal to all federal, state and local government web resources and services.